sat.trackr.live / text

‹ back to catalog

JILIN-01 KUANFU 02B 6

NORAD 61194 · 2024-169F

PAYLOAD ACTIVE UNKNOWN

§ Identity

Operator
Country
PRC
Launch date
2024-09-20
Launch site
TAISC
Launch vehicle
Mass (kg)
RCS (m²)

External: N2YO · Heavens-Above · Gunter

§ Orbital elements

Epoch: 2026-09-22T21:10:52.568832Z

Period
95.40 min
Inclination
97.5528°
Eccentricity
0.0015954
Mean motion
15.09427172 rev/d
Perigee alt
526.9 km
Apogee alt
549.0 km
Semi-major
6,916.1 km
B*
1.3141e-4
RAAN
353.9445°
Arg perigee
352.3608°
Mean anomaly
7.7375°
Rev number
11,057

§ Raw data

JILIN-01 KUANFU 02B 61 61194U 24169F   26265.88255288  .00002043  00000+0  13141-3 0  99912 61194  97.5528 353.9445 0015954 352.3608   7.7375 15.09427172110574

JSON: /api/v1/satellites/61194 · /tle

For live sub-satellite position, see the globe view (requires WebGL).

§ Visibility from observer

Set your observer location to see the next 7 days of passes ≥ 10°. The values pass through the URL so the page stays shareable.

No JS? Fill the form by hand. The geolocation button needs JavaScript.